Find Starlink 32332

NORAD ID: 62490 Int'l Des: 2025-003 Owner: SPXS Country: US Constellation: starlink operational
LEOCIRCULAR

当前视图

正在加载3D地球...

About Starlink 32332

Starlink 32332 (NORAD 62490) is a starlink constellation satellite (v2 mini) launched Jan 6, 2025 by SPXS of US. It operates in LEO, CIRCULAR orbit with a mass of 730.00 kg.

关于 Starlink 32332

正在加载描述...

即将过境

Passes for default location (London). Set your location on the main map for personalized predictions.

高度历史

Loading altitude history...

两行轨道根数

1 62490U 25003D 26169.79952225 .00014084 00000-0 52034-3 0 9990
2 62490 43.0042 78.0772 0001086 271.9272 88.1456 15.27581042 82111
Epoch: Jun 18, 2026 • Age: 5 hours

当前状态

高度 482.7 km
速度 7.63 km/s
星下点 19.21°N, 40.59°W
发射日期 Jan 6, 2025
运行时间 1.4 years
类型 internet

技术详情

分类 Payload
质量 730.00 kg
干质量 700.00 kg
总质量 730.00 kg
长度 0.30 m
直径 4.10 m
跨度 29.00 m
形状 Box + pan
制造商 SPXS
平台类型 Starlink V2M
阶段状态 In Orbit
所有者/国家 SPXS/US

Most Searched